Location: Cadeilhan
(42.8161°N, 0.3161°E)
Time: 17:42:56
(UTC+00:00)

USA 116 - Pass Details

Date: 18 February 2020
Orbit: 405 x 834 km, 97.9° (Epoch: 18 November)

Event Time Altitude Azimuth Distance (km) Brightness Sun altitude
Rises 05:54:13 0° 179° (S) 2,437 7.1 -11.4°
Reaches altitude 10° 05:56:21 10° 185° (S) 1,530 6.0 -11.0°
Maximum altitude 05:59:27 44° 259° (W) 590 3.4 -10.4°
Drops below altitude 10° 06:02:26 10° 334° (NNW) 1,477 5.6 -9.9°
Sets 06:04:28 0° 341° (NNW) 2,339 6.7 -9.5°
